Terminal Aerodrome Forecast
Issued by NWS

Home | Current Version | Previous Version | Text Only | Print | Product List | Glossary On
Versions: 1 2 3 4 5 6 7 8 9 10 11 12 13 14 15 16 17 18 19 20 21 22 23 24 25 26 27 28 29 30 31 32 33 34
000
FTUS43 KDDC 271739
TAFHYS
TAF
KHYS 271739Z 2718/2818 30010KT P6SM SCT200
     FM280000 24007KT P6SM SKC=

USA.gov is the U.S. government's official web portal to all federal, state and local government web resources and services.